locationName,lineName,date,time,countIn,countOut
�����w�O,��������,2022/8/1,0:00,0,0
�����w�O,��������,2022/8/1,1:00,0,0
�����w�O,��������,2022/8/1,2:00,0,0
�����w�O,��������,2022/8/1,3:00,0,0
�����w�O,��������,2022/8/1,4:00,0,0
�����w�O,��������,2022/8/1,5:00,0,0
�����w�O,��������,2022/8/1,6:00,0,0
�����w�O,��������,2022/8/1,7:00,0,0
�����w�O,��������,2022/8/1,8:00,0,0
�����w�O,��������,2022/8/1,9:00,0,0
�����w�O,��������,2022/8/1,10:00,0,0
�����w�O,��������,2022/8/1,11:00,0,0
�����w�O,��������,2022/8/1,12:00,0,0
�����w�O,��������,2022/8/1,13:00,0,0
�����w�O,��������,2022/8/1,14:00,0,0
�����w�O,��������,2022/8/1,15:00,0,0
�����w�O,��������,2022/8/1,16:00,0,0
�����w�O,��������,2022/8/1,17:00,0,0
�����w�O,��������,2022/8/1,18:00,0,0
�����w�O,��������,2022/8/1,19:00,0,0
�����w�O,��������,2022/8/1,20:00,0,0
�����w�O,��������,2022/8/1,21:00,0,0
�����w�O,��������,2022/8/1,22:00,0,0
�����w�O,��������,2022/8/1,23:00,0,0
�����w�O,��������,2022/8/2,0:00,0,0
�����w�O,��������,2022/8/2,1:00,0,0
�����w�O,��������,2022/8/2,2:00,0,0
�����w�O,��������,2022/8/2,3:00,0,0
�����w�O,��������,2022/8/2,4:00,0,0
�����w�O,��������,2022/8/2,5:00,0,0
�����w�O,��������,2022/8/2,6:00,0,0
�����w�O,��������,2022/8/2,7:00,0,0
�����w�O,��������,2022/8/2,8:00,0,0
�����w�O,��������,2022/8/2,9:00,91,97
�����w�O,��������,2022/8/2,10:00,147,176
�����w�O,��������,2022/8/2,11:00,141,157
�����w�O,��������,2022/8/2,12:00,198,164
�����w�O,��������,2022/8/2,13:00,173,169
�����w�O,��������,2022/8/2,14:00,140,136
�����w�O,��������,2022/8/2,15:00,162,151
�����w�O,��������,2022/8/2,16:00,224,144
�����w�O,��������,2022/8/2,17:00,176,104
�����w�O,��������,2022/8/2,18:00,0,0
�����w�O,��������,2022/8/2,19:00,0,0
�����w�O,��������,2022/8/2,20:00,0,0
�����w�O,��������,2022/8/2,21:00,0,0
�����w�O,��������,2022/8/2,22:00,0,0
�����w�O,��������,2022/8/2,23:00,0,0
�����w�O,��������,2022/8/3,0:00,0,0
�����w�O,��������,2022/8/3,1:00,0,0
�����w�O,��������,2022/8/3,2:00,0,0
�����w�O,��������,2022/8/3,3:00,0,0
�����w�O,��������,2022/8/3,4:00,0,0
�����w�O,��������,2022/8/3,5:00,0,0
�����w�O,��������,2022/8/3,6:00,0,0
�����w�O,��������,2022/8/3,7:00,0,0
�����w�O,��������,2022/8/3,8:00,0,0
�����w�O,��������,2022/8/3,9:00,0,0
�����w�O,��������,2022/8/3,10:00,0,0
�����w�O,��������,2022/8/3,11:00,0,0
�����w�O,��������,2022/8/3,12:00,0,0
�����w�O,��������,2022/8/3,13:00,0,0
�����w�O,��������,2022/8/3,14:00,0,0
�����w�O,��������,2022/8/3,15:00,0,0
�����w�O,��������,2022/8/3,16:00,0,0
�����w�O,��������,2022/8/3,17:00,151,96
�����w�O,��������,2022/8/3,18:00,206,172
�����w�O,��������,2022/8/3,19:00,117,134
�����w�O,��������,2022/8/3,20:00,88,81
�����w�O,��������,2022/8/3,21:00,58,53
�����w�O,��������,2022/8/3,22:00,44,21
�����w�O,��������,2022/8/3,23:00,20,20
�����w�O,��������,2022/8/4,0:00,2,8
�����w�O,��������,2022/8/4,1:00,3,2
�����w�O,��������,2022/8/4,2:00,1,0
�����w�O,��������,2022/8/4,3:00,0,1
�����w�O,��������,2022/8/4,4:00,4,3
�����w�O,��������,2022/8/4,5:00,19,18
�����w�O,��������,2022/8/4,6:00,80,88
�����w�O,��������,2022/8/4,7:00,148,196
�����w�O,��������,2022/8/4,8:00,116,246
�����w�O,��������,2022/8/4,9:00,121,180
�����w�O,��������,2022/8/4,10:00,191,192
�����w�O,��������,2022/8/4,11:00,199,272
�����w�O,��������,2022/8/4,12:00,190,233
�����w�O,��������,2022/8/4,13:00,202,142
�����w�O,��������,2022/8/4,14:00,202,149
�����w�O,��������,2022/8/4,15:00,289,254
�����w�O,��������,2022/8/4,16:00,223,134
�����w�O,��������,2022/8/4,17:00,281,157
�����w�O,��������,2022/8/4,18:00,220,200
�����w�O,��������,2022/8/4,19:00,119,135
�����w�O,��������,2022/8/4,20:00,110,81
�����w�O,��������,2022/8/4,21:00,63,71
�����w�O,��������,2022/8/4,22:00,39,33
�����w�O,��������,2022/8/4,23:00,30,16
�����w�O,��������,2022/8/5,0:00,9,5
�����w�O,��������,2022/8/5,1:00,3,2
�����w�O,��������,2022/8/5,2:00,4,3
�����w�O,��������,2022/8/5,3:00,3,1
�����w�O,��������,2022/8/5,4:00,3,1
�����w�O,��������,2022/8/5,5:00,17,22
�����w�O,��������,2022/8/5,6:00,78,65
�����w�O,��������,2022/8/5,7:00,147,211
�����w�O,��������,2022/8/5,8:00,116,258
�����w�O,��������,2022/8/5,9:00,147,171
�����w�O,��������,2022/8/5,10:00,172,199
�����w�O,��������,2022/8/5,11:00,181,257
�����w�O,��������,2022/8/5,12:00,312,263
�����w�O,��������,2022/8/5,13:00,306,267
�����w�O,��������,2022/8/5,14:00,255,183
�����w�O,��������,2022/8/5,15:00,216,167
�����w�O,��������,2022/8/5,16:00,247,178
�����w�O,��������,2022/8/5,17:00,316,261
�����w�O,��������,2022/8/5,18:00,239,201
�����w�O,��������,2022/8/5,19:00,138,161
�����w�O,��������,2022/8/5,20:00,142,116
�����w�O,��������,2022/8/5,21:00,250,350
�����w�O,��������,2022/8/5,22:00,69,48
�����w�O,��������,2022/8/5,23:00,30,19
�����w�O,��������,2022/8/6,0:00,22,6
�����w�O,��������,2022/8/6,1:00,9,2
�����w�O,��������,2022/8/6,2:00,3,1
�����w�O,��������,2022/8/6,3:00,0,2
�����w�O,��������,2022/8/6,4:00,12,19
�����w�O,��������,2022/8/6,5:00,17,14
�����w�O,��������,2022/8/6,6:00,53,46
�����w�O,��������,2022/8/6,7:00,76,82
�����w�O,��������,2022/8/6,8:00,142,241
�����w�O,��������,2022/8/6,9:00,172,180
�����w�O,��������,2022/8/6,10:00,208,304
�����w�O,��������,2022/8/6,11:00,211,343
�����w�O,��������,2022/8/6,12:00,255,274
�����w�O,��������,2022/8/6,13:00,284,292
�����w�O,��������,2022/8/6,14:00,243,217
�����w�O,��������,2022/8/6,15:00,253,191
�����w�O,��������,2022/8/6,16:00,323,233
�����w�O,��������,2022/8/6,17:00,229,221
�����w�O,��������,2022/8/6,18:00,202,217
�����w�O,��������,2022/8/6,19:00,160,159
�����w�O,��������,2022/8/6,20:00,174,200
�����w�O,��������,2022/8/6,21:00,136,84
�����w�O,��������,2022/8/6,22:00,96,64
�����w�O,��������,2022/8/6,23:00,37,18
�����w�O,��������,2022/8/7,0:00,13,9
�����w�O,��������,2022/8/7,1:00,6,1
�����w�O,��������,2022/8/7,2:00,2,2
�����w�O,��������,2022/8/7,3:00,2,2
�����w�O,��������,2022/8/7,4:00,2,1
�����w�O,��������,2022/8/7,5:00,18,13
�����w�O,��������,2022/8/7,6:00,42,39
�����w�O,��������,2022/8/7,7:00,79,64
�����w�O,��������,2022/8/7,8:00,103,158
�����w�O,��������,2022/8/7,9:00,159,214
�����w�O,��������,2022/8/7,10:00,302,421
�����w�O,��������,2022/8/7,11:00,203,302
�����w�O,��������,2022/8/7,12:00,244,288
�����w�O,��������,2022/8/7,13:00,368,320
�����w�O,��������,2022/8/7,14:00,337,252
�����w�O,��������,2022/8/7,15:00,315,182
�����w�O,��������,2022/8/7,16:00,223,156
�����w�O,��������,2022/8/7,17:00,241,181
�����w�O,��������,2022/8/7,18:00,192,134
�����w�O,��������,2022/8/7,19:00,131,168
�����w�O,��������,2022/8/7,20:00,101,86
�����w�O,��������,2022/8/7,21:00,63,55
�����w�O,��������,2022/8/7,22:00,32,35
�����w�O,��������,2022/8/7,23:00,17,7
�����w�O,��������,2022/8/8,0:00,8,2
�����w�O,��������,2022/8/8,1:00,7,4
�����w�O,��������,2022/8/8,2:00,1,0
�����w�O,��������,2022/8/8,3:00,4,1
�����w�O,��������,2022/8/8,4:00,1,0
�����w�O,��������,2022/8/8,5:00,13,13
�����w�O,��������,2022/8/8,6:00,73,51
�����w�O,��������,2022/8/8,7:00,129,169
�����w�O,��������,2022/8/8,8:00,119,236
�����w�O,��������,2022/8/8,9:00,134,160
�����w�O,��������,2022/8/8,10:00,176,239
�����w�O,��������,2022/8/8,11:00,201,272
�����w�O,��������,2022/8/8,12:00,263,291
�����w�O,��������,2022/8/8,13:00,240,207
�����w�O,��������,2022/8/8,14:00,218,178
�����w�O,��������,2022/8/8,15:00,222,143
�����w�O,��������,2022/8/8,16:00,225,163
�����w�O,��������,2022/8/8,17:00,277,183
�����w�O,��������,2022/8/8,18:00,293,185
�����w�O,��������,2022/8/8,19:00,199,211
�����w�O,��������,2022/8/8,20:00,102,95
�����w�O,��������,2022/8/8,21:00,80,72
�����w�O,��������,2022/8/8,22:00,33,24
�����w�O,��������,2022/8/8,23:00,21,10
�����w�O,��������,2022/8/9,0:00,3,8
�����w�O,��������,2022/8/9,1:00,3,0
�����w�O,��������,2022/8/9,2:00,0,1
�����w�O,��������,2022/8/9,3:00,1,1
�����w�O,��������,2022/8/9,4:00,1,3
�����w�O,��������,2022/8/9,5:00,13,10
�����w�O,��������,2022/8/9,6:00,83,57
�����w�O,��������,2022/8/9,7:00,129,181
�����w�O,��������,2022/8/9,8:00,123,208
�����w�O,��������,2022/8/9,9:00,150,157
�����w�O,��������,2022/8/9,10:00,247,274
�����w�O,��������,2022/8/9,11:00,198,302
�����w�O,��������,2022/8/9,12:00,235,230
�����w�O,��������,2022/8/9,13:00,266,205
�����w�O,��������,2022/8/9,14:00,344,366
�����w�O,��������,2022/8/9,15:00,215,175
�����w�O,��������,2022/8/9,16:00,254,165
�����w�O,��������,2022/8/9,17:00,295,195
�����w�O,��������,2022/8/9,18:00,233,205
�����w�O,��������,2022/8/9,19:00,174,186
�����w�O,��������,2022/8/9,20:00,117,105
�����w�O,��������,2022/8/9,21:00,119,86
�����w�O,��������,2022/8/9,22:00,43,25
�����w�O,��������,2022/8/9,23:00,22,13
�����w�O,��������,2022/8/10,0:00,4,4
�����w�O,��������,2022/8/10,1:00,4,3
�����w�O,��������,2022/8/10,2:00,2,0
�����w�O,��������,2022/8/10,3:00,4,3
�����w�O,��������,2022/8/10,4:00,3,3
�����w�O,��������,2022/8/10,5:00,13,16
�����w�O,��������,2022/8/10,6:00,82,46
�����w�O,��������,2022/8/10,7:00,139,182
�����w�O,��������,2022/8/10,8:00,168,251
�����w�O,��������,2022/8/10,9:00,144,164
�����w�O,��������,2022/8/10,10:00,219,325
�����w�O,��������,2022/8/10,11:00,215,300
�����w�O,��������,2022/8/10,12:00,255,277
�����w�O,��������,2022/8/10,13:00,279,246
�����w�O,��������,2022/8/10,14:00,342,292
�����w�O,��������,2022/8/10,15:00,269,165
�����w�O,��������,2022/8/10,16:00,281,308
�����w�O,��������,2022/8/10,17:00,335,222
�����w�O,��������,2022/8/10,18:00,263,282
�����w�O,��������,2022/8/10,19:00,191,247
�����w�O,��������,2022/8/10,20:00,118,121
�����w�O,��������,2022/8/10,21:00,86,63
�����w�O,��������,2022/8/10,22:00,79,43
�����w�O,��������,2022/8/10,23:00,37,23
�����w�O,��������,2022/8/11,0:00,17,18
�����w�O,��������,2022/8/11,1:00,5,2
�����w�O,��������,2022/8/11,2:00,6,2
�����w�O,��������,2022/8/11,3:00,3,2
�����w�O,��������,2022/8/11,4:00,2,3
�����w�O,��������,2022/8/11,5:00,25,14
�����w�O,��������,2022/8/11,6:00,48,41
�����w�O,��������,2022/8/11,7:00,100,119
�����w�O,��������,2022/8/11,8:00,170,226
�����w�O,��������,2022/8/11,9:00,146,252
�����w�O,��������,2022/8/11,10:00,266,482
�����w�O,��������,2022/8/11,11:00,304,433
�����w�O,��������,2022/8/11,12:00,361,448
�����w�O,��������,2022/8/11,13:00,351,324
�����w�O,��������,2022/8/11,14:00,415,347
�����w�O,��������,2022/8/11,15:00,435,322
�����w�O,��������,2022/8/11,16:00,359,280
�����w�O,��������,2022/8/11,17:00,380,250
�����w�O,��������,2022/8/11,18:00,263,250
�����w�O,��������,2022/8/11,19:00,247,211
�����w�O,��������,2022/8/11,20:00,212,132
�����w�O,��������,2022/8/11,21:00,102,71
�����w�O,��������,2022/8/11,22:00,59,46
�����w�O,��������,2022/8/11,23:00,42,16
�����w�O,��������,2022/8/12,0:00,8,5
�����w�O,��������,2022/8/12,1:00,4,1
�����w�O,��������,2022/8/12,2:00,2,1
�����w�O,��������,2022/8/12,3:00,1,2
�����w�O,��������,2022/8/12,4:00,3,1
�����w�O,��������,2022/8/12,5:00,22,12
�����w�O,��������,2022/8/12,6:00,65,50
�����w�O,��������,2022/8/12,7:00,122,128
�����w�O,��������,2022/8/12,8:00,130,242
�����w�O,��������,2022/8/12,9:00,202,334
�����w�O,��������,2022/8/12,10:00,268,400
�����w�O,��������,2022/8/12,11:00,254,473
�����w�O,��������,2022/8/12,12:00,333,502
�����w�O,��������,2022/8/12,13:00,321,306
�����w�O,��������,2022/8/12,14:00,397,353
�����w�O,��������,2022/8/12,15:00,444,308
�����w�O,��������,2022/8/12,16:00,361,256
�����w�O,��������,2022/8/12,17:00,379,267
�����w�O,��������,2022/8/12,18:00,359,308
�����w�O,��������,2022/8/12,19:00,223,230
�����w�O,��������,2022/8/12,20:00,167,146
�����w�O,��������,2022/8/12,21:00,161,116
�����w�O,��������,2022/8/12,22:00,68,36
�����w�O,��������,2022/8/12,23:00,29,12
�����w�O,��������,2022/8/13,0:00,11,12
�����w�O,��������,2022/8/13,1:00,3,0
�����w�O,��������,2022/8/13,2:00,1,0
�����w�O,��������,2022/8/13,3:00,2,1
�����w�O,��������,2022/8/13,4:00,2,0
�����w�O,��������,2022/8/13,5:00,9,16
�����w�O,��������,2022/8/13,6:00,83,62
�����w�O,��������,2022/8/13,7:00,94,90
�����w�O,��������,2022/8/13,8:00,118,169
�����w�O,��������,2022/8/13,9:00,169,245
�����w�O,��������,2022/8/13,10:00,244,375
�����w�O,��������,2022/8/13,11:00,259,407
�����w�O,��������,2022/8/13,12:00,318,461
�����w�O,��������,2022/8/13,13:00,358,328
�����w�O,��������,2022/8/13,14:00,439,366
�����w�O,��������,2022/8/13,15:00,353,289
�����w�O,��������,2022/8/13,16:00,417,354
�����w�O,��������,2022/8/13,17:00,398,339
�����w�O,��������,2022/8/13,18:00,320,301
�����w�O,��������,2022/8/13,19:00,274,245
�����w�O,��������,2022/8/13,20:00,169,149
�����w�O,��������,2022/8/13,21:00,124,69
�����w�O,��������,2022/8/13,22:00,80,50
�����w�O,��������,2022/8/13,23:00,40,16
�����w�O,��������,2022/8/14,0:00,14,10
�����w�O,��������,2022/8/14,1:00,9,2
�����w�O,��������,2022/8/14,2:00,8,5
�����w�O,��������,2022/8/14,3:00,4,2
�����w�O,��������,2022/8/14,4:00,4,2
�����w�O,��������,2022/8/14,5:00,25,23
�����w�O,��������,2022/8/14,6:00,71,85
�����w�O,��������,2022/8/14,7:00,168,151
�����w�O,��������,2022/8/14,8:00,191,227
�����w�O,��������,2022/8/14,9:00,180,262
�����w�O,��������,2022/8/14,10:00,228,370
�����w�O,��������,2022/8/14,11:00,267,451
�����w�O,��������,2022/8/14,12:00,340,468
�����w�O,��������,2022/8/14,13:00,376,433
�����w�O,��������,2022/8/14,14:00,433,291
�����w�O,��������,2022/8/14,15:00,471,325
�����w�O,��������,2022/8/14,16:00,437,316
�����w�O,��������,2022/8/14,17:00,367,315
�����w�O,��������,2022/8/14,18:00,319,228
�����w�O,��������,2022/8/14,19:00,263,239
�����w�O,��������,2022/8/14,20:00,139,139
�����w�O,��������,2022/8/14,21:00,88,152
�����w�O,��������,2022/8/14,22:00,101,122
�����w�O,��������,2022/8/14,23:00,30,15
�����w�O,��������,2022/8/15,0:00,6,5
�����w�O,��������,2022/8/15,1:00,6,4
�����w�O,��������,2022/8/15,2:00,3,6
�����w�O,��������,2022/8/15,3:00,8,2
�����w�O,��������,2022/8/15,4:00,1,3
�����w�O,��������,2022/8/15,5:00,16,16
�����w�O,��������,2022/8/15,6:00,41,35
�����w�O,��������,2022/8/15,7:00,106,126
�����w�O,��������,2022/8/15,8:00,145,249
�����w�O,��������,2022/8/15,9:00,195,217
�����w�O,��������,2022/8/15,10:00,259,393
�����w�O,��������,2022/8/15,11:00,288,410
�����w�O,��������,2022/8/15,12:00,338,442
�����w�O,��������,2022/8/15,13:00,320,298
�����w�O,��������,2022/8/15,14:00,370,289
�����w�O,��������,2022/8/15,15:00,379,232
�����w�O,��������,2022/8/15,16:00,349,206
�����w�O,��������,2022/8/15,17:00,409,277
�����w�O,��������,2022/8/15,18:00,261,233
�����w�O,��������,2022/8/15,19:00,209,219
�����w�O,��������,2022/8/15,20:00,166,125
�����w�O,��������,2022/8/15,21:00,102,99
�����w�O,��������,2022/8/15,22:00,39,22
�����w�O,��������,2022/8/15,23:00,43,36
�����w�O,��������,2022/8/16,0:00,9,4
�����w�O,��������,2022/8/16,1:00,1,5
�����w�O,��������,2022/8/16,2:00,2,1
�����w�O,��������,2022/8/16,3:00,6,2
�����w�O,��������,2022/8/16,4:00,4,1
�����w�O,��������,2022/8/16,5:00,12,11
�����w�O,��������,2022/8/16,6:00,61,47
�����w�O,��������,2022/8/16,7:00,115,141
�����w�O,��������,2022/8/16,8:00,100,200
�����w�O,��������,2022/8/16,9:00,221,279
�����w�O,��������,2022/8/16,10:00,264,375
�����w�O,��������,2022/8/16,11:00,271,373
�����w�O,��������,2022/8/16,12:00,291,352
�����w�O,��������,2022/8/16,13:00,335,270
�����w�O,��������,2022/8/16,14:00,305,245
�����w�O,��������,2022/8/16,15:00,321,232
�����w�O,��������,2022/8/16,16:00,382,315
�����w�O,��������,2022/8/16,17:00,296,219
�����w�O,��������,2022/8/16,18:00,229,207
�����w�O,��������,2022/8/16,19:00,155,218
�����w�O,��������,2022/8/16,20:00,92,106
�����w�O,��������,2022/8/16,21:00,85,66
�����w�O,��������,2022/8/16,22:00,39,38
�����w�O,��������,2022/8/16,23:00,47,42
�����w�O,��������,2022/8/17,0:00,5,2
�����w�O,��������,2022/8/17,1:00,0,0
�����w�O,��������,2022/8/17,2:00,0,0
�����w�O,��������,2022/8/17,3:00,3,8
�����w�O,��������,2022/8/17,4:00,2,0
�����w�O,��������,2022/8/17,5:00,8,10
�����w�O,��������,2022/8/17,6:00,68,57
�����w�O,��������,2022/8/17,7:00,138,136
�����w�O,��������,2022/8/17,8:00,93,146
�����w�O,��������,2022/8/17,9:00,119,122
�����w�O,��������,2022/8/17,10:00,218,332
�����w�O,��������,2022/8/17,11:00,245,306
�����w�O,��������,2022/8/17,12:00,212,260
�����w�O,��������,2022/8/17,13:00,222,238
�����w�O,��������,2022/8/17,14:00,268,232
�����w�O,��������,2022/8/17,15:00,214,169
�����w�O,��������,2022/8/17,16:00,216,169
�����w�O,��������,2022/8/17,17:00,303,204
�����w�O,��������,2022/8/17,18:00,228,226
�����w�O,��������,2022/8/17,19:00,138,139
�����w�O,��������,2022/8/17,20:00,88,82
�����w�O,��������,2022/8/17,21:00,53,44
�����w�O,��������,2022/8/17,22:00,26,24
�����w�O,��������,2022/8/17,23:00,19,14
�����w�O,��������,2022/8/18,0:00,11,12
�����w�O,��������,2022/8/18,1:00,1,1
�����w�O,��������,2022/8/18,2:00,23,26
�����w�O,��������,2022/8/18,3:00,2,2
�����w�O,��������,2022/8/18,4:00,6,9
�����w�O,��������,2022/8/18,5:00,12,11
�����w�O,��������,2022/8/18,6:00,59,39
�����w�O,��������,2022/8/18,7:00,158,165
�����w�O,��������,2022/8/18,8:00,119,150
�����w�O,��������,2022/8/18,9:00,128,203
�����w�O,��������,2022/8/18,10:00,182,254
�����w�O,��������,2022/8/18,11:00,201,314
�����w�O,��������,2022/8/18,12:00,251,315
�����w�O,��������,2022/8/18,13:00,284,255
�����w�O,��������,2022/8/18,14:00,249,228
�����w�O,��������,2022/8/18,15:00,229,182
�����w�O,��������,2022/8/18,16:00,242,189
�����w�O,��������,2022/8/18,17:00,326,231
�����w�O,��������,2022/8/18,18:00,273,200
�����w�O,��������,2022/8/18,19:00,232,248
�����w�O,��������,2022/8/18,20:00,103,101
�����w�O,��������,2022/8/18,21:00,67,46
�����w�O,��������,2022/8/18,22:00,43,34
�����w�O,��������,2022/8/18,23:00,13,14
�����w�O,��������,2022/8/19,0:00,5,2
�����w�O,��������,2022/8/19,1:00,4,0
�����w�O,��������,2022/8/19,2:00,2,1
�����w�O,��������,2022/8/19,3:00,1,2
�����w�O,��������,2022/8/19,4:00,0,1
�����w�O,��������,2022/8/19,5:00,13,11
�����w�O,��������,2022/8/19,6:00,77,65
�����w�O,��������,2022/8/19,7:00,150,168
�����w�O,��������,2022/8/19,8:00,146,225
�����w�O,��������,2022/8/19,9:00,165,221
�����w�O,��������,2022/8/19,10:00,234,324
�����w�O,��������,2022/8/19,11:00,236,308
�����w�O,��������,2022/8/19,12:00,281,348
�����w�O,��������,2022/8/19,13:00,287,230
�����w�O,��������,2022/8/19,14:00,310,257
�����w�O,��������,2022/8/19,15:00,273,187
�����w�O,��������,2022/8/19,16:00,330,220
�����w�O,��������,2022/8/19,17:00,311,166
�����w�O,��������,2022/8/19,18:00,214,207
�����w�O,��������,2022/8/19,19:00,180,183
�����w�O,��������,2022/8/19,20:00,129,118
�����w�O,��������,2022/8/19,21:00,90,104
�����w�O,��������,2022/8/19,22:00,57,32
�����w�O,��������,2022/8/19,23:00,15,5
�����w�O,��������,2022/8/20,0:00,13,3
�����w�O,��������,2022/8/20,1:00,2,2
�����w�O,��������,2022/8/20,2:00,4,1
�����w�O,��������,2022/8/20,3:00,0,2
�����w�O,��������,2022/8/20,4:00,1,4
�����w�O,��������,2022/8/20,5:00,18,9
�����w�O,��������,2022/8/20,6:00,51,49
�����w�O,��������,2022/8/20,7:00,100,153
�����w�O,��������,2022/8/20,8:00,199,291
�����w�O,��������,2022/8/20,9:00,162,219
�����w�O,��������,2022/8/20,10:00,262,351
�����w�O,��������,2022/8/20,11:00,207,282
�����w�O,��������,2022/8/20,12:00,253,281
�����w�O,��������,2022/8/20,13:00,244,199
�����w�O,��������,2022/8/20,14:00,311,253
�����w�O,��������,2022/8/20,15:00,343,207
�����w�O,��������,2022/8/20,16:00,222,198
�����w�O,��������,2022/8/20,17:00,323,215
�����w�O,��������,2022/8/20,18:00,237,210
�����w�O,��������,2022/8/20,19:00,163,146
�����w�O,��������,2022/8/20,20:00,113,98
�����w�O,��������,2022/8/20,21:00,85,56
�����w�O,��������,2022/8/20,22:00,72,37
�����w�O,��������,2022/8/20,23:00,13,13
�����w�O,��������,2022/8/21,0:00,4,1
�����w�O,��������,2022/8/21,1:00,3,1
�����w�O,��������,2022/8/21,2:00,2,1
�����w�O,��������,2022/8/21,3:00,2,2
�����w�O,��������,2022/8/21,4:00,3,2
�����w�O,��������,2022/8/21,5:00,15,15
�����w�O,��������,2022/8/21,6:00,29,27
�����w�O,��������,2022/8/21,7:00,84,67
�����w�O,��������,2022/8/21,8:00,103,143
�����w�O,��������,2022/8/21,9:00,150,212
�����w�O,��������,2022/8/21,10:00,176,302
�����w�O,��������,2022/8/21,11:00,246,342
�����w�O,��������,2022/8/21,12:00,282,360
�����w�O,��������,2022/8/21,13:00,313,225
�����w�O,��������,2022/8/21,14:00,285,249
�����w�O,��������,2022/8/21,15:00,325,177
�����w�O,��������,2022/8/21,16:00,270,197
�����w�O,��������,2022/8/21,17:00,265,167
�����w�O,��������,2022/8/21,18:00,174,149
�����w�O,��������,2022/8/21,19:00,129,155
�����w�O,��������,2022/8/21,20:00,108,72
�����w�O,��������,2022/8/21,21:00,95,88
�����w�O,��������,2022/8/21,22:00,48,35
�����w�O,��������,2022/8/21,23:00,15,8
�����w�O,��������,2022/8/22,0:00,0,2
�����w�O,��������,2022/8/22,1:00,1,1
�����w�O,��������,2022/8/22,2:00,2,1
�����w�O,��������,2022/8/22,3:00,1,1
�����w�O,��������,2022/8/22,4:00,1,1
�����w�O,��������,2022/8/22,5:00,17,10
�����w�O,��������,2022/8/22,6:00,73,56
�����w�O,��������,2022/8/22,7:00,135,178
�����w�O,��������,2022/8/22,8:00,97,223
�����w�O,��������,2022/8/22,9:00,160,181
�����w�O,��������,2022/8/22,10:00,223,282
�����w�O,��������,2022/8/22,11:00,196,250
�����w�O,��������,2022/8/22,12:00,244,315
�����w�O,��������,2022/8/22,13:00,232,186
�����w�O,��������,2022/8/22,14:00,234,193
�����w�O,��������,2022/8/22,15:00,241,151
�����w�O,��������,2022/8/22,16:00,223,158
�����w�O,��������,2022/8/22,17:00,308,195
�����w�O,��������,2022/8/22,18:00,256,181
�����w�O,��������,2022/8/22,19:00,131,145
�����w�O,��������,2022/8/22,20:00,85,86
�����w�O,��������,2022/8/22,21:00,60,55
�����w�O,��������,2022/8/22,22:00,57,35
�����w�O,��������,2022/8/22,23:00,25,12
�����w�O,��������,2022/8/23,0:00,2,4
�����w�O,��������,2022/8/23,1:00,1,2
�����w�O,��������,2022/8/23,2:00,2,0
�����w�O,��������,2022/8/23,3:00,2,2
�����w�O,��������,2022/8/23,4:00,4,1
�����w�O,��������,2022/8/23,5:00,14,12
�����w�O,��������,2022/8/23,6:00,84,61
�����w�O,��������,2022/8/23,7:00,175,249
�����w�O,��������,2022/8/23,8:00,146,230
�����w�O,��������,2022/8/23,9:00,146,177
�����w�O,��������,2022/8/23,10:00,163,218
�����w�O,��������,2022/8/23,11:00,240,316
�����w�O,��������,2022/8/23,12:00,225,257
�����w�O,��������,2022/8/23,13:00,205,155
�����w�O,��������,2022/8/23,14:00,198,186
�����w�O,��������,2022/8/23,15:00,242,177
�����w�O,��������,2022/8/23,16:00,290,139
�����w�O,��������,2022/8/23,17:00,275,180
�����w�O,��������,2022/8/23,18:00,214,245
�����w�O,��������,2022/8/23,19:00,143,169
�����w�O,��������,2022/8/23,20:00,107,99
�����w�O,��������,2022/8/23,21:00,69,67
�����w�O,��������,2022/8/23,22:00,40,37
�����w�O,��������,2022/8/23,23:00,17,20
�����w�O,��������,2022/8/24,0:00,6,3
�����w�O,��������,2022/8/24,1:00,4,1
�����w�O,��������,2022/8/24,2:00,1,0
�����w�O,��������,2022/8/24,3:00,8,11
�����w�O,��������,2022/8/24,4:00,3,3
�����w�O,��������,2022/8/24,5:00,13,13
�����w�O,��������,2022/8/24,6:00,78,64
�����w�O,��������,2022/8/24,7:00,153,225
�����w�O,��������,2022/8/24,8:00,130,204
�����w�O,��������,2022/8/24,9:00,108,167
�����w�O,��������,2022/8/24,10:00,134,184
�����w�O,��������,2022/8/24,11:00,174,282
�����w�O,��������,2022/8/24,12:00,262,252
�����w�O,��������,2022/8/24,13:00,162,153
�����w�O,��������,2022/8/24,14:00,363,286
�����w�O,��������,2022/8/24,15:00,266,203
�����w�O,��������,2022/8/24,16:00,248,210
�����w�O,��������,2022/8/24,17:00,280,201
�����w�O,��������,2022/8/24,18:00,304,398
�����w�O,��������,2022/8/24,19:00,128,220
�����w�O,��������,2022/8/24,20:00,99,79
�����w�O,��������,2022/8/24,21:00,59,53
�����w�O,��������,2022/8/24,22:00,41,28
�����w�O,��������,2022/8/24,23:00,6,6
�����w�O,��������,2022/8/25,0:00,4,4
�����w�O,��������,2022/8/25,1:00,4,4
�����w�O,��������,2022/8/25,2:00,4,5
�����w�O,��������,2022/8/25,3:00,3,4
�����w�O,��������,2022/8/25,4:00,0,2
�����w�O,��������,2022/8/25,5:00,14,6
�����w�O,��������,2022/8/25,6:00,70,59
�����w�O,��������,2022/8/25,7:00,175,231
�����w�O,��������,2022/8/25,8:00,126,166
�����w�O,��������,2022/8/25,9:00,170,167
�����w�O,��������,2022/8/25,10:00,187,255
�����w�O,��������,2022/8/25,11:00,162,255